This is the latest recevied weather packets stored in our database for station/object OE-11372. If no packets are shown the sender has not sent any weather packets the latest 10 day(s).
| Time | Temp. | Humidity | Pressure | Rain* | Wind** | Luminosity | Snow |
|---|---|---|---|---|---|---|---|
| 1788122102 | 16.67° C | 78% | 852.9 hPa | 0 mm | - | 0 W/m² | - |
| 1788121503 | 16.67° C | 79% | 852.9 hPa | 0 mm | - | 0 W/m² | - |
| 1788120676 | 16.11° C | 79% | 852.8 hPa | 0 mm | - | 0 W/m² | - |
| 1788120303 | 16.11° C | 79% | 852.7 hPa | 0 mm | - | 0 W/m² | - |
| 1788119703 | 16.67° C | 78% | 852.7 hPa | 0 mm | - | 0 W/m² | - |
| 1788118876 | 16.67° C | 79% | 852.7 hPa | 0 mm | - | 0 W/m² | - |
| 1788118503 | 17.22° C | 77% | 852.8 hPa | 0 mm | - | 0 W/m² | - |
| 1788117903 | 17.22° C | 77% | 852.7 hPa | 0 mm | - | 0 W/m² | - |
| 1788117076 | 17.22° C | 75% | 852.8 hPa | 0 mm | - | 0 W/m² | - |
| 1788116703 | 17.78° C | 74% | 852.7 hPa | 0 mm | - | 0 W/m² | - |
| 1788116103 | 17.78° C | 73% | 852.6 hPa | 0 mm | - | 0 W/m² | - |
| 1788115276 | 17.78° C | 73% | 852.6 hPa | 0 mm | - | 0 W/m² | - |
| 1788114902 | 18.33° C | 72% | 852.5 hPa | 0 mm | - | 0 W/m² | - |
| 1788114303 | 18.33° C | 70% | 852.3 hPa | 0 mm | - | 0 W/m² | - |
| 1788113476 | 18.89° C | 69% | 852.3 hPa | 0 mm | - | 0 W/m² | - |
| 1788113103 | 19.44° C | 68% | 852.2 hPa | 0 mm | - | 8 W/m² | - |
| 1788112503 | 19.44° C | 67% | 852 hPa | 0 mm | - | 16 W/m² | - |
| 1788111915 | 20° C | 66% | 852.1 hPa | 0 mm | - | 33 W/m² | - |
| 1788111303 | 20° C | 66% | 852.1 hPa | 0 mm | - | 41 W/m² | - |
| 1788110703 | 20.56° C | 64% | 852.1 hPa | 0 mm | - | 41 W/m² | - |
| 1788109876 | 20.56° C | 64% | 852.2 hPa | 0 mm | - | 41 W/m² | - |
| 1788109503 | 20.56° C | 64% | 852.2 hPa | 0 mm | - | 33 W/m² | - |
| 1788108902 | 20.56° C | 64% | 852.2 hPa | 0 mm | - | 49 W/m² | - |
| 1788108075 | 20.56° C | 62% | 852.2 hPa | 0 mm | - | 49 W/m² | - |
| 1788107703 | 21.11° C | 59% | 852.3 hPa | 0 mm | - | 58 W/m² | - |
* Rain latest hour (hover to see other rain measurements)
** Current wind speed in m/s (hover to see current wind gust speed)